Find Kosmos-2569

NORAD ID: 57517 Int'l Des: 2023-114 Owner: VVKOV/IACG Country: RU Constellation: GLONASS operational
MEOCIRCULAR

Live-Position

3D-Globus wird geladen...

Über Kosmos-2569

Beschreibung wird geladen...

Nächste Überflüge

Passes for default location (London). Set your location on the main map for personalized predictions.

Höhenverlauf

Loading altitude history...

Zweizeiliger Elementsatz

1 57517U 23114A 26124.14314772 -.00000015 00000-0 00000+0 0 9996
2 57517 65.2787 74.1049 0012211 295.6884 64.1588 2.13103888 21320
Epoch: 4. Mai 2026 • Age: 28 hours

Aktueller Status

Höhe 19152.6 km
Geschwindigkeit 3.95 km/s
Subsatellitenpunkt 18.87°N, 82.32°W
Startdatum 7. Aug. 2023
Alter 2.7 years
Typ other

Technische Details

Klassifizierung Payload
Masse 1645.00 kg
Trockenmasse 1200.00 kg
Gesamtmasse 1645.00 kg
Länge 6.00 m
Durchmesser 1.00 m
Spannweite 10.00 m
Form Box + 2 Pan
Hersteller RESH
Bus-Typ KAUR-4N
Phasenstatus In Orbit
Besitzer/Staat VVKOV/IACG/RU

Most Searched